Flag for Nepal Weather past 2 weeks in Kathmandu, Nepal

Now
82 °F

Broken clouds.


Feels Like: 85 °F
Forecast: 57 / 87 °F
Wind: 7 mph from West

Location: Kathmandu Airport

Current Time: May 29, 2015 at 2:25:28 PM

Latest Report: May 29, 2015 at 1:35 PM


Visibility: 4 mi

Pressure: 29.89 "Hg

Humidity: 58%

Dew point: 66 °F

Location of KathmanduLocation

Historic Weather in Kathmandu — Graph

°F

Kathmandu temperature yesterday

Maximum temperature yesterday: 84 °F (at 1:35 PM)
Minimum temperature yesterday: 64 °F (at 5:35 AM)
Average temperature yesterday: 76 °F

Past Weeks' High & Low Weather Summary

 TemperatureHumidityPressure
High90 °F (May 23, 2:35 PM)94% (May 17, 3:35 AM)30.07 "Hg (May 17, 3:35 AM)
Low57 °F (May 24, 5:35 AM)22% (May 23, 2:35 PM)29.74 "Hg (May 22, 2:35 PM)
Average74 °F65%29.88 "Hg
* Reported May 14 1:35 PM — May 29 12:35 PM, Kathmandu, Weather by CustomWeather, © 2015

Note: Actual official high and low records may vary slightly from our data, if they occured in-between our weather recording intervals... More about our weather records

Advertising

Kathmandu weather history for previous 24 hours

 ConditionsComfort  
Time TempWeatherWind HumidityBarometerVisibility
12:35 PM
Fri, May 29
82 °FBroken clouds.3 mph55%29.92 "Hg4 mi
11:35 AM84 °FScattered clouds.3 mph48%29.92 "Hg4 mi
10:35 AM82 °FPassing clouds.6 mph55%29.92 "Hg4 mi
9:35 AM79 °FPassing clouds.5 mph65%29.92 "Hg4 mi
8:35 AM77 °FPassing clouds.6 mph69%29.92 "Hg4 mi
7:35 AM73 °FPassing clouds.No wind74%29.89 "Hg4 mi
6:35 AM70 °FFog.No wind83%29.86 "Hg3 mi
4:35 AM68 °FPassing clouds.No wind88%29.83 "Hg4 mi
3:35 AM68 °FPassing clouds.3 mph88%29.83 "Hg4 mi
2:35 AM68 °FPassing clouds.3 mph88%29.83 "Hg4 mi
1:35 AM68 °FPassing clouds.No wind88%29.86 "Hg4 mi
12:35 AM72 °FPassing clouds.2 mph78%29.86 "Hg4 mi
11:35 PM
Thu, May 28
72 °FPassing clouds.5 mph78%29.89 "Hg4 mi
10:35 PM72 °FPassing clouds.6 mph78%29.89 "Hg4 mi
9:35 PM75 °FPassing clouds.6 mph69%29.89 "Hg4 mi
8:35 PM75 °FPassing clouds.5 mph69%29.86 "Hg4 mi
7:35 PM77 °FScattered clouds.7 mph65%29.83 "Hg5 mi
6:35 PM79 °FScattered clouds.9 mph61%29.83 "Hg5 mi
5:35 PM81 °FPassing clouds.7 mph54%29.80 "Hg5 mi
4:35 PM82 °FScattered clouds.7 mph55%29.80 "Hg5 mi
3:35 PM84 °FScattered clouds.9 mph51%29.83 "Hg5 mi
2:35 PMN/A5 mphN/AN/A5 mi
Weather by CustomWeather, © 2015

See weather overviewHow to use our weather pages